SCP
0 0 -0 -0 -0 -0 0 0 0 0 0 0 0 0 0 0 0 0 0 0 -0 -0 0 -0 -0 -0 -0 -0 -0 -0 -0 -0 -0 -0 -0 -0 -0 -0 -0 -0 -0 -0 -0 -0 -0 -0 -0 -0 -0
0 -0 -0 -0 -0 0 0 0 0 0 0 0 0 0 0 0 0 0 0 0 -0 -0 -0 -0 -0 -0 -0 -0 -0 -0 -0 -0 -0 -0 -0 -0 -0 -0 -0 -0 -0 -0 -0 -0 -0 -0 -0 -0 -0
-0 -0 -0 -0 -0 0 0 0 0 0 0 0 0 0 0 0 0 0 0 -0 -0 -0 -0 -0 -0 -0 -0 -0 -0 -0 -0 -0 -0 -0 -0 -0 -0 -0 -0 -0 -0 -0 -0 -0 -0 -0 -0 -0 -0
0 -0 -0 0 -0 0 0 0 0 0 0 0 0 0 0 0 0 0 0 -0 -0 -0 -0 -0 -0 -0 -0 -0 -0 -0 -0 -0 -0 -0 -0 -0 -0 -0 -0 -0 -0 -0 -0 -0 -0 -0 -0 -0 -0
0 0 0 0 -0 0 0 0 0 0 0 0 0 0 0 0 0 -0 -0 -0 -0 -0 -0 -0 -0 -0 -0 -0 -0 -0 -0 -0 -0 -0 -0 -0 -0 -0 -0 -0 -0 -0 -0 -0 -0 -0 -0 -0 -0
0 0 0 -0 0 -0 -0 -0 0 0 0 0 0 0 0 -0 0 0 -0 -0 -0 -0 -0 -0 -0 -0 -0 -0 -0 -0 -0 -0 -0 -0 -0 -0 -0 -0 -0 -0 -0 -0 -0 -0 -0 -0 -0 -0 -0
0 0 -0 0 -0 -0 -0 -0 -0 0 0 0 0 0 -0 -0 0 0 -0 -0 -0 -0 -0 -0 -0 -0 -0 -0 -0 -0 -0 -0 -0 -0 -0 -0 -0 -0 -0 -0 -0 -0 -0 -0 -0 -0 -0 -0 -0
0 0 0 0 0 0 -0 -0 0 0 0 0 0 0 0 0 0 0 0 0 0 0 0 -0 -0 -0 -0 -0 -0 -0 -0 -0 -0 -0 -0 -0 -0 -0 -0 -0 -0 -0 -0 -0 -0 -0 -0 -0 -0
0 0 0 0 0 0 0 0 0 0 0 0 0 0 0 0 0 0 0 0 0 0 0 0 0 -0 -0 0 -0 -0 -0 -0 -0 -0 -0 -0 0 0 -0 -0 -0 -0 -0 -0 -0 -0 -0 -0 -0
0 0 0 0 0 0 0 0 0 0 0 0 0 0 0 0 0 0 0 0 0 0 0 0 0 0 0 0 0 0 0 0 0 0 0 0 0 0 0 0 -0 -0 -0 -0 -0 -0 -0 -0 0
0 0 0 0 0 0 0 0 0 0 0 0 0 0 0 0 0 0 0 0 0 0 0 0 0 0 0 0 0 0 0 0 0 0 0 0 0 0 0 0 0 0 0 0 0 0 0 0 0
0 0 0 0 0 0 0 0 0 0 0 0 0 0 0 0 0 0 0 0 0 0 0 0 0 0 0 0 0 0 0 0 0 0 0 0 0 0 0 0 0 0 0 0 0 0 0 0 0
0 0 0 0 0 0 0 0 0 0 0 0 0 0 0 0 0 0 0 0 0 0 0 0 0 0 0 0 0 0 0 0 0 0 0 0 0 0 0 0 0 0 0 0 0 0 0 0 0
0 0 0 0 0 0 0 0 0 0 0 0 0 0 0 0 0 0 0 0 0 0 0 0 0 0 0 0 0 0 0 0 0 0 0 0 0 0 0 0 0 0 0 0 0 0 0 0 0
0 0 0 0 0 0 0 0 0 0 0 0 0 0 0 0 0 0 0 0 0 0 0 0 0 0 0 0 0 0 0 0 0 0 0 0 0 0 0 0 0 0 0 0 0 0 0 0 0
0 0 0 0 0 0 0 0 0 0 0 0 0 0 0 0 0 0 0 0 0 0 0 0 0 0 0 0 0 0 0 0 0 0 0 0 0 0 0 0 0 0 0 0 0 0 0 0 0
0 0 0 0 0 0 0 0 0 0 0 0 0 0 0 0 0 0 0 0 0 0 0 0 0 0 0 0 0 0 0 0 0 0 0 0 0 0 0 0 0 0 0 0 0 0 0 0 0
0 0 0 0 0 0 0 0 0 0 0 0 0 0 0 0 0 0 0 0 0 0 0 0 0 0 0 0 0 0 0 0 0 0 0 0 0 0 0 0 0 0 0 0 0 0 0 0 0
0 0 0 0 0 0 0 0 0 0 0 0 0 0 0 0 0 0 0 0 0 0 0 0 0 0 0 0 0 0 0 0 0 0 0 0 0 0 0 0 0 0 0 0 0 0 0 0 0
0 0 0 0 0 0 0 0 0 0 0 0 0 0 0 0 0 0 0 0 0 0 0 0 0 0 0 0 0 0 0 0 0 0 0 0 0 0 0 0 0 0 0 0 0 0 0 0 0
0 0 0 0 0 0 0 0 0 0 0 0 0 0 0 0 0 0 0 0 0 0 0 0 0 0 0 0 0 0 0 0 0 0 0 0 0 0 0 0 0 0 0 0 0 0 0 0 0
0 0 0 0 0 0 0 -0 0 0 0 0 0 0 0 0 0 0 0 0 0 0 0 0 0 0 0 0 0 0 0 0 0 0 0 0 0 0 0 0 0 0 0 0 0 0 0 0 0
0 0 0 0 0 0 0 0 0 0 0 0 0 0 0 0 0 0 0 0 0 0 0 0 0 0 0 0 0 0 0 0 0 0 0 0 0 0 0 0 0 0 0 0 0 0 0 0 0
0 0 0 0 0 0 0 0 0 0 0 0 0 0 0 0 0 0 0 0 0 0 0 0 0 0 0 0 0 0 0 0 0 0 0 0 0 0 0 0 0 0 0 0 0 0 0 0 0
0 0 0 0 0 0 0 0 0 0 0 0 -0 0 0 0 0 0 0 0 0 0 0 0 0 0 0 0 0 0 0 0 0 0 0 0 0 0 0 0 0 0 0 0 0 0 0 0 0
0 0 0 0 0 0 0 0 0 0 0 0 0 0 -0 0 0 0 0 0 0 0 0 0 0 0 0 0 0 0 0 0 0 0 0 0 0 0 0 0 0 0 0 0 0 0 0 0 0
0 0 0 0 0 0 0 0 0 0 0 0 -0 0 0 0 0 0 0 0 0 0 0 0 0 0 0 0 0 0 0 0 0 0 0 0 0 0 0 0 0 0 0 0 0 0 0 0 0
0 0 0 0 0 0 0 0 0 0 0 0 0 0 0 0 0 0 -0 -0 -0 0 0 0 0 0 0 0 0 0 0 0 0 0 0 0 0 0 0 0 0 0 0 0 0 0 0 0 0
0 0 0 0 0 0 0 0 0 0 0 0 0 0 0 0 0 0 -0 -0 -0 -0 0 0 0 0 0 0 0 0 0 0 0 0 0 0 0 0 0 0 0 0 0 0 0 0 0 0 0
0 0 0 0 0 0 0 0 0 0 0 0 0 0 0 0 0 -0 -0 -0 -0 -0 -0 0 0 0 0 0 0 0 0 0 0 0 0 0 0 0 0 0 0 0 0 0 0 0 0 0 0
Wind_Speed_500mb
5 3 2 3 6 8 3 6 2 5 4 6 16 11 10 6 6 4 32 40 36 36 36 34 32 29 27 25 24 21 18 15 15 18 22 25 26 28 28 25 24 22 21 24 23 24 32 27 30
5 5 5 5 8 4 7 5 10 8 8 24 18 14 5 4 9 19 38 34 37 37 37 34 32 30 28 24 21 19 14 10 14 19 22 24 26 28 28 27 24 23 22 21 20 28 29 24 26
9 10 2 8 6 6 7 9 9 11 25 9 8 6 8 6 14 39 30 32 38 41 38 35 32 29 27 25 22 18 14 9 12 16 19 22 24 25 26 24 23 23 22 21 26 27 23 21 23
9 7 10 7 5 6 6 6 13 25 8 8 9 5 7 12 30 29 32 32 36 40 37 34 32 29 26 24 21 17 15 15 9 14 16 17 19 22 23 23 23 22 21 22 26 25 23 21 20
9 4 7 6 5 5 7 6 28 13 5 10 14 7 5 18 23 25 28 33 38 42 36 33 30 28 26 23 21 19 17 15 8 13 14 15 16 18 20 21 21 21 22 22 24 23 22 20 17
3 7 7 3 7 6 7 15 19 13 6 10 8 12 7 20 25 27 31 31 36 39 34 32 30 27 25 24 22 19 18 16 10 12 11 11 13 15 18 17 17 19 21 22 22 22 20 17 14
8 8 7 7 6 6 8 21 15 19 10 11 6 11 7 26 30 31 35 34 39 39 36 29 28 25 22 21 21 20 18 17 13 14 12 8 8 12 16 15 15 17 19 21 21 20 18 16 15
8 12 7 6 7 10 11 24 14 24 16 10 16 9 7 30 37 36 37 37 39 44 43 38 32 27 25 23 20 19 19 17 16 16 15 10 9 12 15 17 18 18 18 19 19 19 18 17 17
8 9 5 9 13 10 14 12 11 13 11 22 23 15 10 26 41 41 42 43 41 44 47 45 41 35 33 32 29 22 18 15 13 16 16 12 6 11 15 17 20 20 21 21 20 19 19 18 18
8 8 16 10 11 7 9 13 17 11 14 17 27 34 22 22 42 46 48 49 48 48 50 47 42 41 38 36 35 31 26 24 22 20 20 14 9 7 9 9 14 18 18 19 20 20 19 18 18
7 9 8 7 9 7 6 8 14 15 8 28 38 41 37 32 42 49 49 48 46 47 50 51 51 46 39 40 40 35 32 33 32 30 25 21 16 14 12 10 8 5 8 13 15 16 15 14 14
3 2 8 3 7 5 6 5 9 30 28 18 25 31 37 43 46 50 53 52 51 52 50 52 52 55 45 42 42 38 38 36 37 36 32 29 24 19 17 18 17 11 7 0 2 3 5 7 9
5 3 7 8 9 11 10 17 15 34 38 40 35 30 34 43 49 52 54 52 52 54 53 53 53 54 53 50 45 46 45 40 39 39 39 35 31 26 25 25 21 18 14 11 7 4 2 3 6
2 3 9 9 11 12 8 6 5 14 26 46 43 42 41 41 46 54 59 59 59 56 56 55 54 54 57 56 54 53 50 48 48 45 44 42 38 32 30 30 30 25 24 19 13 10 7 7 6
2 6 11 10 7 8 8 13 20 53 48 40 37 45 48 49 51 58 58 60 59 58 57 57 55 55 56 56 57 58 55 52 54 50 46 47 44 38 34 36 37 35 31 29 20 15 12 12 8
7 9 5 4 7 3 11 19 19 13 29 49 48 51 50 52 56 58 61 63 62 62 61 58 58 57 57 59 60 61 61 59 56 57 52 47 42 42 39 42 47 40 46 40 28 24 20 18 15
11 6 8 15 13 4 6 16 12 9 15 32 36 43 49 53 56 61 62 64 65 66 64 64 62 60 59 61 61 62 64 65 65 61 60 50 56 53 48 52 46 46 40 40 31 27 23 25 26
12 8 8 10 5 4 8 29 26 43 36 51 49 49 50 53 57 54 60 64 65 67 67 66 65 64 61 60 59 61 62 63 70 68 64 60 58 52 50 58 52 56 45 46 35 28 31 27 37
11 8 8 9 8 7 16 20 35 40 38 56 69 75 75 75 71 65 60 64 70 72 73 72 70 68 66 64 63 62 62 63 69 68 65 64 63 66 61 54 62 63 58 47 37 35 38 47 44
7 5 11 12 6 11 17 25 27 41 40 60 70 80 89 85 75 71 72 67 73 77 77 75 73 70 69 68 66 63 61 62 62 65 64 64 57 68 62 63 70 67 58 54 44 46 53 52 52
10 11 10 17 6 7 10 17 16 15 31 61 79 91 90 92 90 82 73 71 75 78 81 80 77 73 71 71 68 65 60 61 66 66 68 70 61 61 57 58 54 58 64 51 52 55 57 59 60
12 17 10 5 3 9 1 16 10 13 19 16 66 73 75 72 70 65 59 57 64 72 79 83 81 77 73 71 70 69 71 72 74 71 75 73 62 56 66 52 67 65 57 52 52 57 57 52 59
11 11 12 6 6 8 4 2 13 2 13 34 38 57 45 41 37 33 33 33 37 49 64 78 82 80 77 71 68 66 65 66 64 65 67 65 66 62 62 62 53 56 54 53 55 58 57 54 53
14 11 10 8 4 10 18 17 9 11 17 12 25 31 9 7 6 7 7 13 23 35 48 65 77 81 79 71 69 66 65 65 63 70 70 72 70 72 66 60 59 56 54 57 58 59 56 52 48
6 11 4 6 1 16 6 7 14 15 17 16 20 16 10 8 22 23 19 16 20 27 36 52 69 80 77 71 68 66 65 56 59 68 73 74 74 73 65 62 61 60 58 59 60 60 57 52 48
18 16 11 14 8 10 2 15 12 17 39 58 44 39 33 24 18 18 16 15 16 21 29 39 56 74 73 68 66 64 60 61 63 68 74 73 75 71 63 63 64 61 62 63 61 58 56 52 47
13 14 10 4 5 4 11 16 15 20 21 25 20 15 16 15 13 5 4 6 9 14 22 31 44 61 65 64 62 61 57 63 64 69 74 78 76 73 67 65 66 66 67 66 63 62 59 54 49
10 14 7 3 6 10 10 12 15 12 19 14 10 18 13 11 13 15 17 16 13 9 11 24 36 47 52 61 61 59 58 60 60 62 70 78 79 76 71 70 68 71 70 67 65 61 57 52 46
7 10 5 9 9 10 5 17 15 18 15 15 13 25 18 19 15 16 18 14 11 10 8 19 30 39 50 57 57 56 57 62 62 69 71 73 75 81 75 75 75 77 75 70 65 59 53 46 40
2 8 11 10 9 8 5 31 8 9 5 21 20 20 23 20 14 10 9 5 8 9 16 19 30 41 49 53 56 55 55 62 64 68 69 73 75 82 80 78 81 80 78 72 64 57 50 43 37
Wind_Direction_500mb
253 244 224 206 61 62 292 240 291 162 177 181 145 170 194 134 162 184 150 162 167 167 163 160 163 162 161 153 148 138 126 113 103 78 70 67 67 64 66 70 76 79 79 85 89 91 83 86 66
200 170 155 109 86 68 260 247 208 209 156 133 128 130 146 162 146 149 151 162 171 172 169 166 163 166 164 160 154 142 138 114 110 90 81 78 72 70 71 74 79 80 79 81 88 93 88 86 75
167 158 179 89 103 183 213 213 179 148 142 147 133 169 168 172 154 152 163 165 171 174 175 172 171 173 172 168 164 155 147 139 114 92 85 82 77 73 72 74 78 83 86 89 96 100 104 91 82
165 141 63 83 229 238 216 213 166 146 209 185 179 143 178 158 152 165 169 172 174 174 177 178 179 180 180 177 172 166 161 155 116 110 99 91 77 71 72 78 79 81 87 94 103 109 113 107 90
174 110 63 86 268 258 256 220 170 162 178 178 174 196 199 176 171 172 171 174 175 174 177 181 184 186 185 185 181 178 175 173 153 127 115 102 86 75 72 73 81 90 92 95 100 106 107 104 98
157 88 64 221 255 257 253 186 172 188 184 172 192 160 192 186 181 177 170 170 174 178 176 182 186 189 192 191 192 190 185 186 167 154 139 115 89 75 71 75 85 91 96 99 103 105 110 115 101
130 86 197 166 244 304 211 174 180 190 195 221 211 158 209 187 179 176 173 171 172 174 186 188 189 189 193 197 198 195 192 194 185 175 167 144 95 76 75 81 87 94 98 100 102 105 108 104 98
128 92 132 226 200 248 193 171 202 195 220 223 198 211 219 191 182 179 178 177 178 183 184 189 204 203 193 209 222 207 207 207 200 189 185 173 127 96 82 85 84 87 91 92 94 95 96 96 92
127 69 200 224 155 240 170 186 190 195 197 194 203 214 207 188 190 188 187 188 187 187 190 191 199 207 200 209 217 220 221 215 213 206 197 178 134 96 82 86 82 86 89 91 93 94 91 86 87
102 121 218 206 193 223 200 195 187 180 200 221 227 227 220 203 201 202 201 198 195 194 196 197 197 207 209 213 214 219 221 219 218 221 221 211 196 163 146 106 83 82 77 79 81 84 85 86 89
147 185 200 230 224 226 202 215 193 195 217 219 227 233 227 223 211 212 214 213 210 202 203 204 204 208 206 214 219 219 219 217 213 222 218 224 216 206 193 192 162 113 65 54 70 81 94 102 99
155 211 188 242 211 190 197 213 212 220 229 241 248 244 236 233 225 221 219 217 212 212 211 212 214 219 220 214 219 220 222 224 226 223 218 217 214 218 213 214 192 197 163 32 27 33 53 112 104
149 237 231 257 241 236 248 241 241 251 248 250 253 254 242 236 234 228 224 220 219 219 219 219 221 224 229 227 219 221 220 225 230 226 224 222 222 221 221 218 210 197 188 170 267 242 275 172 125
157 256 274 268 243 241 231 261 248 252 250 247 248 251 251 245 239 230 225 223 224 224 225 226 228 230 231 233 229 219 223 226 230 233 229 226 224 222 233 224 216 211 198 196 196 206 201 197 133
77 328 323 250 242 240 225 281 236 254 255 259 257 251 249 249 240 237 235 233 232 232 231 233 235 237 236 234 231 228 225 221 227 233 233 228 229 225 231 234 223 213 206 208 200 205 211 218 201
52 49 350 298 164 254 168 272 271 264 253 255 258 254 252 249 249 244 238 236 234 235 236 237 238 240 239 237 234 232 228 223 221 226 235 236 233 233 231 237 228 223 218 203 205 208 216 216 199
7 229 209 311 205 126 168 271 264 277 274 270 264 260 258 256 250 248 241 239 236 236 237 238 240 241 241 239 237 234 232 228 223 225 229 231 235 236 229 235 228 221 222 200 219 204 217 217 194
200 212 239 242 201 176 214 262 267 261 271 274 272 269 264 262 259 255 248 243 239 236 236 237 239 243 242 237 235 233 232 229 222 221 228 232 233 232 242 238 229 221 216 194 204 224 201 215 187
137 182 231 251 248 193 233 247 267 269 263 262 266 266 262 261 264 261 253 245 242 239 238 237 238 238 238 235 232 231 229 225 224 222 225 230 231 236 235 229 230 216 211 225 223 218 221 191 189
159 178 249 275 249 187 273 255 254 262 253 253 258 262 264 265 263 258 253 249 243 241 240 239 239 238 238 237 237 235 231 226 228 220 223 229 231 226 237 218 241 214 214 214 218 220 199 196 191
211 192 214 229 327 247 311 276 241 279 252 260 261 262 263 263 266 265 261 256 250 243 241 240 240 238 237 236 234 231 227 226 220 226 220 223 229 230 234 225 229 227 208 218 237 220 213 206 195
238 206 187 197 76 252 203 287 263 250 253 254 262 262 263 268 270 272 271 263 256 251 242 239 238 238 237 236 232 231 232 230 228 220 219 226 231 226 237 236 224 217 210 239 229 212 216 218 202
232 134 167 160 186 343 204 219 267 34 258 256 265 270 285 285 277 271 270 266 259 249 245 241 238 237 236 235 232 231 232 231 233 230 225 220 221 220 213 219 220 232 228 223 215 210 207 208 209
141 84 56 52 90 271 198 194 226 189 214 264 265 282 331 34 348 306 279 255 248 242 238 238 236 236 236 232 231 231 236 230 223 223 218 214 213 216 216 222 227 224 218 212 208 203 201 205 211
146 111 294 316 357 244 17 240 259 270 237 229 248 272 285 333 308 296 284 270 259 254 244 236 232 233 233 229 228 229 233 229 227 228 219 219 223 216 216 219 220 212 211 208 201 200 202 206 208
197 165 174 213 215 275 26 241 241 234 254 254 268 264 283 302 294 296 293 280 265 257 250 243 234 231 231 230 229 229 231 226 223 227 225 227 222 223 219 219 217 213 209 203 201 202 203 204 205
189 203 192 52 89 1 226 285 285 270 276 269 260 265 263 276 298 293 293 324 305 276 260 251 240 233 232 231 230 229 227 222 226 234 231 225 225 220 215 215 217 208 204 201 201 202 202 202 203
168 168 86 326 203 253 262 271 229 248 248 256 222 236 233 147 122 99 84 64 41 358 279 250 243 237 233 232 232 231 228 225 225 228 226 228 222 219 214 214 211 203 200 201 201 200 200 201 199
151 205 170 138 157 186 293 261 215 223 210 191 191 163 160 141 140 125 111 96 90 39 313 266 247 234 228 234 234 232 229 227 228 231 237 232 224 222 213 213 208 203 200 201 201 201 201 200 199
344 237 162 146 217 242 168 264 167 214 145 165 169 185 166 152 146 133 131 159 145 57 358 289 257 242 234 235 235 232 228 225 228 230 237 230 232 223 213 210 206 205 202 201 202 203 201 201 200
Wind_Speed_850mb
5 3 2 3 6 8 3 6 2 5 4 6 16 11 10 6 6 4 32 40 36 36 36 34 32 29 27 25 24 21 18 15 15 18 22 25 26 28 28 25 24 22 21 24 23 24 32 27 30
5 5 5 5 8 4 7 5 10 8 8 24 18 14 5 4 9 19 38 34 37 37 37 34 32 30 28 24 21 19 14 10 14 19 22 24 26 28 28 27 24 23 22 21 20 28 29 24 26
9 10 2 8 6 6 7 9 9 11 25 9 8 6 8 6 14 39 30 32 38 41 38 35 32 29 27 25 22 18 14 9 12 16 19 22 24 25 26 24 23 23 22 21 26 27 23 21 23
9 7 10 7 5 6 6 6 13 25 8 8 9 5 7 12 30 29 32 32 36 40 37 34 32 29 26 24 21 17 15 15 9 14 16 17 19 22 23 23 23 22 21 22 26 25 23 21 20
9 4 7 6 5 5 7 6 28 13 5 10 14 7 5 18 23 25 28 33 38 42 36 33 30 28 26 23 21 19 17 15 8 13 14 15 16 18 20 21 21 21 22 22 24 23 22 20 17
3 7 7 3 7 6 7 15 19 13 6 10 8 12 7 20 25 27 31 31 36 39 34 32 30 27 25 24 22 19 18 16 10 12 11 11 13 15 18 17 17 19 21 22 22 22 20 17 14
8 8 7 7 6 6 8 21 15 19 10 11 6 11 7 26 30 31 35 34 39 39 36 29 28 25 22 21 21 20 18 17 13 14 12 8 8 12 16 15 15 17 19 21 21 20 18 16 15
8 12 7 6 7 10 11 24 14 24 16 10 16 9 7 30 37 36 37 37 39 44 43 38 32 27 25 23 20 19 19 17 16 16 15 10 9 12 15 17 18 18 18 19 19 19 18 17 17
8 9 5 9 13 10 14 12 11 13 11 22 23 15 10 26 41 41 42 43 41 44 47 45 41 35 33 32 29 22 18 15 13 16 16 12 6 11 15 17 20 20 21 21 20 19 19 18 18
8 8 16 10 11 7 9 13 17 11 14 17 27 34 22 22 42 46 48 49 48 48 50 47 42 41 38 36 35 31 26 24 22 20 20 14 9 7 9 9 14 18 18 19 20 20 19 18 18
7 9 8 7 9 7 6 8 14 15 8 28 38 41 37 32 42 49 49 48 46 47 50 51 51 46 39 40 40 35 32 33 32 30 25 21 16 14 12 10 8 5 8 13 15 16 15 14 14
3 2 8 3 7 5 6 5 9 30 28 18 25 31 37 43 46 50 53 52 51 52 50 52 52 55 45 42 42 38 38 36 37 36 32 29 24 19 17 18 17 11 7 0 2 3 5 7 9
5 3 7 8 9 11 10 17 15 34 38 40 35 30 34 43 49 52 54 52 52 54 53 53 53 54 53 50 45 46 45 40 39 39 39 35 31 26 25 25 21 18 14 11 7 4 2 3 6
2 3 9 9 11 12 8 6 5 14 26 46 43 42 41 41 46 54 59 59 59 56 56 55 54 54 57 56 54 53 50 48 48 45 44 42 38 32 30 30 30 25 24 19 13 10 7 7 6
2 6 11 10 7 8 8 13 20 53 48 40 37 45 48 49 51 58 58 60 59 58 57 57 55 55 56 56 57 58 55 52 54 50 46 47 44 38 34 36 37 35 31 29 20 15 12 12 8
7 9 5 4 7 3 11 19 19 13 29 49 48 51 50 52 56 58 61 63 62 62 61 58 58 57 57 59 60 61 61 59 56 57 52 47 42 42 39 42 47 40 46 40 28 24 20 18 15
11 6 8 15 13 4 6 16 12 9 15 32 36 43 49 53 56 61 62 64 65 66 64 64 62 60 59 61 61 62 64 65 65 61 60 50 56 53 48 52 46 46 40 40 31 27 23 25 26
12 8 8 10 5 4 8 29 26 43 36 51 49 49 50 53 57 54 60 64 65 67 67 66 65 64 61 60 59 61 62 63 70 68 64 60 58 52 50 58 52 56 45 46 35 28 31 27 37
11 8 8 9 8 7 16 20 35 40 38 56 69 75 75 75 71 65 60 64 70 72 73 72 70 68 66 64 63 62 62 63 69 68 65 64 63 66 61 54 62 63 58 47 37 35 38 47 44
7 5 11 12 6 11 17 25 27 41 40 60 70 80 89 85 75 71 72 67 73 77 77 75 73 70 69 68 66 63 61 62 62 65 64 64 57 68 62 63 70 67 58 54 44 46 53 52 52
10 11 10 17 6 7 10 17 16 15 31 61 79 91 90 92 90 82 73 71 75 78 81 80 77 73 71 71 68 65 60 61 66 66 68 70 61 61 57 58 54 58 64 51 52 55 57 59 60
12 17 10 5 3 9 1 16 10 13 19 16 66 73 75 72 70 65 59 57 64 72 79 83 81 77 73 71 70 69 71 72 74 71 75 73 62 56 66 52 67 65 57 52 52 57 57 52 59
11 11 12 6 6 8 4 2 13 2 13 34 38 57 45 41 37 33 33 33 37 49 64 78 82 80 77 71 68 66 65 66 64 65 67 65 66 62 62 62 53 56 54 53 55 58 57 54 53
14 11 10 8 4 10 18 17 9 11 17 12 25 31 9 7 6 7 7 13 23 35 48 65 77 81 79 71 69 66 65 65 63 70 70 72 70 72 66 60 59 56 54 57 58 59 56 52 48
6 11 4 6 1 16 6 7 14 15 17 16 20 16 10 8 22 23 19 16 20 27 36 52 69 80 77 71 68 66 65 56 59 68 73 74 74 73 65 62 61 60 58 59 60 60 57 52 48
18 16 11 14 8 10 2 15 12 17 39 58 44 39 33 24 18 18 16 15 16 21 29 39 56 74 73 68 66 64 60 61 63 68 74 73 75 71 63 63 64 61 62 63 61 58 56 52 47
13 14 10 4 5 4 11 16 15 20 21 25 20 15 16 15 13 5 4 6 9 14 22 31 44 61 65 64 62 61 57 63 64 69 74 78 76 73 67 65 66 66 67 66 63 62 59 54 49
10 14 7 3 6 10 10 12 15 12 19 14 10 18 13 11 13 15 17 16 13 9 11 24 36 47 52 61 61 59 58 60 60 62 70 78 79 76 71 70 68 71 70 67 65 61 57 52 46
7 10 5 9 9 10 5 17 15 18 15 15 13 25 18 19 15 16 18 14 11 10 8 19 30 39 50 57 57 56 57 62 62 69 71 73 75 81 75 75 75 77 75 70 65 59 53 46 40
2 8 11 10 9 8 5 31 8 9 5 21 20 20 23 20 14 10 9 5 8 9 16 19 30 41 49 53 56 55 55 62 64 68 69 73 75 82 80 78 81 80 78 72 64 57 50 43 37
Wind_Direction_850mb
253 244 224 206 61 62 292 240 291 162 177 181 145 170 194 134 162 184 150 162 167 167 163 160 163 162 161 153 148 138 126 113 103 78 70 67 67 64 66 70 76 79 79 85 89 91 83 86 66
200 170 155 109 86 68 260 247 208 209 156 133 128 130 146 162 146 149 151 162 171 172 169 166 163 166 164 160 154 142 138 114 110 90 81 78 72 70 71 74 79 80 79 81 88 93 88 86 75
167 158 179 89 103 183 213 213 179 148 142 147 133 169 168 172 154 152 163 165 171 174 175 172 171 173 172 168 164 155 147 139 114 92 85 82 77 73 72 74 78 83 86 89 96 100 104 91 82
165 141 63 83 229 238 216 213 166 146 209 185 179 143 178 158 152 165 169 172 174 174 177 178 179 180 180 177 172 166 161 155 116 110 99 91 77 71 72 78 79 81 87 94 103 109 113 107 90
174 110 63 86 268 258 256 220 170 162 178 178 174 196 199 176 171 172 171 174 175 174 177 181 184 186 185 185 181 178 175 173 153 127 115 102 86 75 72 73 81 90 92 95 100 106 107 104 98
157 88 64 221 255 257 253 186 172 188 184 172 192 160 192 186 181 177 170 170 174 178 176 182 186 189 192 191 192 190 185 186 167 154 139 115 89 75 71 75 85 91 96 99 103 105 110 115 101
130 86 197 166 244 304 211 174 180 190 195 221 211 158 209 187 179 176 173 171 172 174 186 188 189 189 193 197 198 195 192 194 185 175 167 144 95 76 75 81 87 94 98 100 102 105 108 104 98
128 92 132 226 200 248 193 171 202 195 220 223 198 211 219 191 182 179 178 177 178 183 184 189 204 203 193 209 222 207 207 207 200 189 185 173 127 96 82 85 84 87 91 92 94 95 96 96 92
127 69 200 224 155 240 170 186 190 195 197 194 203 214 207 188 190 188 187 188 187 187 190 191 199 207 200 209 217 220 221 215 213 206 197 178 134 96 82 86 82 86 89 91 93 94 91 86 87
102 121 218 206 193 223 200 195 187 180 200 221 227 227 220 203 201 202 201 198 195 194 196 197 197 207 209 213 214 219 221 219 218 221 221 211 196 163 146 106 83 82 77 79 81 84 85 86 89
147 185 200 230 224 226 202 215 193 195 217 219 227 233 227 223 211 212 214 213 210 202 203 204 204 208 206 214 219 219 219 217 213 222 218 224 216 206 193 192 162 113 65 54 70 81 94 102 99
155 211 188 242 211 190 197 213 212 220 229 241 248 244 236 233 225 221 219 217 212 212 211 212 214 219 220 214 219 220 222 224 226 223 218 217 214 218 213 214 192 197 163 32 27 33 53 112 104
149 237 231 257 241 236 248 241 241 251 248 250 253 254 242 236 234 228 224 220 219 219 219 219 221 224 229 227 219 221 220 225 230 226 224 222 222 221 221 218 210 197 188 170 267 242 275 172 125
157 256 274 268 243 241 231 261 248 252 250 247 248 251 251 245 239 230 225 223 224 224 225 226 228 230 231 233 229 219 223 226 230 233 229 226 224 222 233 224 216 211 198 196 196 206 201 197 133
77 328 323 250 242 240 225 281 236 254 255 259 257 251 249 249 240 237 235 233 232 232 231 233 235 237 236 234 231 228 225 221 227 233 233 228 229 225 231 234 223 213 206 208 200 205 211 218 201
52 49 350 298 164 254 168 272 271 264 253 255 258 254 252 249 249 244 238 236 234 235 236 237 238 240 239 237 234 232 228 223 221 226 235 236 233 233 231 237 228 223 218 203 205 208 216 216 199
7 229 209 311 205 126 168 271 264 277 274 270 264 260 258 256 250 248 241 239 236 236 237 238 240 241 241 239 237 234 232 228 223 225 229 231 235 236 229 235 228 221 222 200 219 204 217 217 194
200 212 239 242 201 176 214 262 267 261 271 274 272 269 264 262 259 255 248 243 239 236 236 237 239 243 242 237 235 233 232 229 222 221 228 232 233 232 242 238 229 221 216 194 204 224 201 215 187
137 182 231 251 248 193 233 247 267 269 263 262 266 266 262 261 264 261 253 245 242 239 238 237 238 238 238 235 232 231 229 225 224 222 225 230 231 236 235 229 230 216 211 225 223 218 221 191 189
159 178 249 275 249 187 273 255 254 262 253 253 258 262 264 265 263 258 253 249 243 241 240 239 239 238 238 237 237 235 231 226 228 220 223 229 231 226 237 218 241 214 214 214 218 220 199 196 191
211 192 214 229 327 247 311 276 241 279 252 260 261 262 263 263 266 265 261 256 250 243 241 240 240 238 237 236 234 231 227 226 220 226 220 223 229 230 234 225 229 227 208 218 237 220 213 206 195
238 206 187 197 76 252 203 287 263 250 253 254 262 262 263 268 270 272 271 263 256 251 242 239 238 238 237 236 232 231 232 230 228 220 219 226 231 226 237 236 224 217 210 239 229 212 216 218 202
232 134 167 160 186 343 204 219 267 34 258 256 265 270 285 285 277 271 270 266 259 249 245 241 238 237 236 235 232 231 232 231 233 230 225 220 221 220 213 219 220 232 228 223 215 210 207 208 209
141 84 56 52 90 271 198 194 226 189 214 264 265 282 331 34 348 306 279 255 248 242 238 238 236 236 236 232 231 231 236 230 223 223 218 214 213 216 216 222 227 224 218 212 208 203 201 205 211
146 111 294 316 357 244 17 240 259 270 237 229 248 272 285 333 308 296 284 270 259 254 244 236 232 233 233 229 228 229 233 229 227 228 219 219 223 216 216 219 220 212 211 208 201 200 202 206 208
197 165 174 213 215 275 26 241 241 234 254 254 268 264 283 302 294 296 293 280 265 257 250 243 234 231 231 230 229 229 231 226 223 227 225 227 222 223 219 219 217 213 209 203 201 202 203 204 205
189 203 192 52 89 1 226 285 285 270 276 269 260 265 263 276 298 293 293 324 305 276 260 251 240 233 232 231 230 229 227 222 226 234 231 225 225 220 215 215 217 208 204 201 201 202 202 202 203
168 168 86 326 203 253 262 271 229 248 248 256 222 236 233 147 122 99 84 64 41 358 279 250 243 237 233 232 232 231 228 225 225 228 226 228 222 219 214 214 211 203 200 201 201 200 200 201 199
151 205 170 138 157 186 293 261 215 223 210 191 191 163 160 141 140 125 111 96 90 39 313 266 247 234 228 234 234 232 229 227 228 231 237 232 224 222 213 213 208 203 200 201 201 201 201 200 199
344 237 162 146 217 242 168 264 167 214 145 165 169 185 166 152 146 133 131 159 145 57 358 289 257 242 234 235 235 232 228 225 228 230 237 230 232 223 213 210 206 205 202 201 202 203 201 201 200